Regional Weather Roundup
Issued by NWS Green Bay, WI

Home | Current Version | Previous Version | Text Only | Print | Product List | Glossary On
Versions: 1 2 3 4 5 6 7 8 9 10 11 12 13 14 15 16 17 18 19 20 21 22 23 24 25 26 27 28 29 30 31 32 33 34 35 36 37 38 39 40 41 42 43 44 45 46 47 48 49 50
007
ASUS43 KGRB 280700
RWRGRB

NORTH-CENTRAL AND NORTHEAST WISCONSIN REGIONAL WEATHER ROUNDUP
NATIONAL WEATHER SERVICE GREEN BAY WI
200 AM CDT FRI APR 28 2017

WIZ005-009-010>012-018-019-280800-
NORTH CENTRAL WISCONSIN

CITY           SKY/WX    TMP DP  RH WIND       PRES   REMARKS
IRONWOOD       CLOUDY    27  25  92 W13       29.68S
MANITOWISH WTR NOT AVBL
ARBOR VITAE    NOT AVBL
EAGLE RIVER    NOT AVBL
LAND O LAKES   NOT AVBL
RHINELANDER    CLOUDY    29  24  82 W14       29.70R
PHILLIPS       NOT AVBL
ANTIGO         NOT AVBL
TOMAHAWK       NOT AVBL
MERRILL        NOT AVBL
$$

WIZ013-073-280800-
NORTHEAST WISCONSIN

CITY           SKY/WX    TMP DP  RH WIND       PRES   REMARKS
IRON MOUNTAIN  CLOUDY    31  23  72 W8        29.69R
MARINETTE      CLOUDY    35  30  82 W5        29.75S
$$

WIZ017-030-035>037-045-280800-
CENTRAL WISCONSIN

CITY           SKY/WX    TMP DP  RH WIND       PRES   REMARKS
MEDFORD        NOT AVBL
WAUSAU         CLOUDY    30  25  81 W16G23    29.75R
MOSINEE        NOT AVBL
MARSHFIELD     CLOUDY    31  26  82 W12       29.76R
WISC RAPIDS    CLOUDY    33  30  88 W12G20    29.79S
STEVENS POINT  NOT AVBL
WAUPACA        NOT AVBL
SHAWANO        NOT AVBL
CLINTONVILLE   NOT AVBL
WAUTOMA        CLOUDY    35  31  85 W14       29.80R
$$

WIZ038-039-048-051-280800-
FOX VALLEY

CITY           SKY/WX    TMP DP  RH WIND       PRES   REMARKS
NWS GREEN BAY  CLOUDY    38  33  82 W15       29.77R
APPLETON       NOT AVBL
OSHKOSH        CLOUDY    38  30  73 W12G21    29.79R
FOND DU LAC    CLOUDY    38  31  76 W9        29.80R
$$

WIZ022-050-052-280800-
EAST CENTRAL WISCONSIN

CITY           SKY/WX    TMP DP  RH WIND       PRES   REMARKS
EPHRAIM        NOT AVBL
WASHINGTON ISL NOT AVBL
STURGEON BAY   LGT RAIN  36  32  85 W10       29.76R
MANITOWOC      NOT AVBL
SHEBOYGAN      CLOUDY    40  34  79 SW10      29.80R
$$

LMZ563-521-522-541>543-280800-
LAKESHORE

STATION/POSITION TIME  TEMP    WIND        PRES    VSBY  WAVE
                       AIR SEA DIR/SP/G                  HT/PER
                 (UTC) (F)     (DEG/KT/KT) (MB)    (MI)  (FT/S)
SHEBOYGAN LKSHOR 0600   41     240/ 14/ 16 1009.2R
KEWAUNEE LKSHORE 0630   39     250/  6/ 13 1007.8R
NORTHPORT PIER   0640   36     280/  8/ 15 1007.1S
N MID LAKE BUOY  0550   38 37  240/ 19/ 21 1007.3R         3/ 6
SISTER BAY LKSHO 0621   38     290/ 18/ 20   N/A
CHAMBERS ISLAND  0640   36     220/  8/ 17 1007.1R
MENOMINEE LKSHOR 0630   37     240/  9/ 14 1006.7R
$$




USA.gov is the U.S. government's official web portal to all federal, state and local government web resources and services.